Regional Weather Roundup
Issued by NWS Jackson, KY

Home | Current Version | Previous Version | Graphics & Text | Print | Product List | Glossary On
Versions: 1 2 3 4 5 6 7 8 9 10 11 12 13 14 15 16 17 18 19 20 21 22 23 24 25 26 27 28 29 30 31 32 33 34 35 36 37 38 39 40 41 42 43 44 45 46 47 48 49 50
000
ASUS43 KJKL 300611
RWRJKL

EAST KENTUCKY HOURLY WEATHER ROUNDUP
NATIONAL WEATHER SERVICE JACKSON KY
100 AM EST FRI JAN 30 2015

NOTE: "FAIR" INDICATES FEW OR NO CLOUDS BELOW 12,000 FEET WITH
NO SIGNIFICANT WEATHER AND/OR OBSTRUCTIONS TO VISIBILITY.

* THESE REPORTS ARE NOT UNDER NWS QUALITY CONTROL AND MAY NOT
  REPORT WEATHER SUCH AS PRECIPITATION AND FOG.

KYZ079-080-083-085-087-088-110-112-115-119-120-300700
...EASTERN KENTUCKY...

CITY           SKY/WX    TMP DP  RH WIND       PRES   REMARKS
JACKSON        CLOUDY    32  28  85 NW9       30.18R WCI  24
6HR MIN TEMP:  32; 6HR MAX TEMP:  43; 6HR PCP: TRACE;

LONDON         CLOUDY    35  27  72 NW9       30.22R WCI  28
6HR MIN TEMP:  35; 6HR MAX TEMP:  45; 6HR PCP: TRACE;

SOMERSET*      CLOUDY    34  28  80 NW7       30.27S WCI  28
MONTICELLO*    CLOUDY    36  31  82 NW12      30.29S WCI  28
6HR MIN TEMP:  36; 6HR MAX TEMP:  43;

MIDDLESBORO*   DRIZZLE   36  32  84 NW10G21   30.20S WCI  29
6HR MIN TEMP:  36; 6HR MAX TEMP:  51;

HARLAN APT*    CLOUDY    34  32  93 NW12G20   30.17S WCI  25
BLACK MTN*       N/A     25  25 100 N7          N/A  WCI  17
PIKEVILLE APT* CLOUDY    32  30  93 W13G18    30.14R WCI  22
BIG SANDY*     FLURRIES  33  32  94 NW7       30.15S WCI  27
6HR MIN TEMP:  33; 6HR MAX TEMP:  47;

MOREHEAD APT*  CLOUDY    32  30  93 NW8G14    30.21S FOG     WCI  25
$$

KYZ035-036-041-042-044-050-067-078-099-300700
...CENTRAL KENTUCKY...

CITY           SKY/WX    TMP DP  RH WIND       PRES   REMARKS
MT STERLING*   CLOUDY    32  30  93 NW9       30.22F WCI  24
FLEMING/MASON* CLOUDY    32  29  90 W13       30.20S WCI  22
DANVILLE*      CLOUDY    32  30  93 NW7       30.26S WCI  26
RICHMOND*      CLOUDY    34  28  80 NW10      30.23S WCI  26
LEXINGTON      CLOUDY    33  30  88 W9        30.24R WCI  25
6HR MIN TEMP:  33; 6HR MAX TEMP:  37; 6HR PCP: TRACE;

FRANKFORT      CLOUDY    33  29  85 W6        30.24R WCI  28
6HR MIN TEMP:  33; 6HR MAX TEMP:  36; 6HR PCP:  0.01;

$$

KYZ091>093-OHZ055-061-077-WVZ005-015-034-035-042-300700
...SOUTHERN OHIO/WEST VIRGINIA...

CITY           SKY/WX    TMP DP  RH WIND       PRES   REMARKS
COVINGTON      CLOUDY    34  27  75 NW10G31   30.20S WCI  26
COLUMBUS       CLOUDY    32  27  80 NW12      30.10S WCI  23
DAYTON         CLOUDY    33  30  88 NW12      30.16R WCI  24
WILMINGTON     CLOUDY    32  27  81 NW12      30.15R WCI  23
HUNTINGTON     CLOUDY    34  30  85 W7G17     30.15R WCI  28
CHARLESTON     LGTSLEET  34  30  85 W10G23    30.11R WCI  26
PINEVILLE*     CLOUDY    37  34  89 MISG      30.12R
BECKLEY        MIX PCPN  32  28  85 NW14      30.01R WCI  22
BLUEFIELD      CLOUDY    34  28  79 W15G33    30.00S WCI  24
$$

VAZ002-007-008-TNZ017-027-036-066-071-300700
...SOUTHWEST VIRGINIA/EAST TENNESSEE...

CITY           SKY/WX    TMP DP  RH WIND       PRES   REMARKS
WISE*          CLOUDY    32  32 100 NW17G25   30.08S FOG     WCI  21
JONESVILLE*    CLOUDY    37  32  81 W6        30.17S WCI  33
ABINGDON*      CLOUDY    38  32  78 NW14G23   30.06R WCI  30
BRISTOL        CLOUDY    40  33  76 W15G24    30.10R WCI  32
KNOXVILLE      CLOUDY    41  31  67 CALM      30.21R
OAK RIDGE      CLOUDY    41  29  62 VRB3      30.23R
CROSSVILLE     CLOUDY    35  26  69 NW13G23   30.22S WCI  26
NASHVILLE      CLOUDY    40  30  67 N12       30.34R WCI  33
$$

...KEY TO REMARKS...
VSB - VISIBILITY IN MILES
WCI - WIND CHILL INDEX
HX  - HEAT INDEX

$$


USA.gov is the U.S. government's official web portal to all federal, state and local government web resources and services.